{"data":{"norad_id":33396,"epoch":"2026-05-25T03:23:15.468864Z","epoch_age_seconds":58700,"freshness":"FRESH","line1":"1 33396U 08049A   26145.14115126  .00000148  00000+0  89218-4 0  9998","line2":"2 33396  98.5581 203.1716 0001297  87.2755 272.8570 14.20129640914694","mean_motion":14.2012964,"eccentricity":0.0001297,"inclination_deg":98.5581,"raan_deg":203.1716,"arg_perigee_deg":87.2755,"mean_anomaly_deg":272.857,"bstar":8.9218e-5,"rev_number":91469,"period_min":101.39919338632,"perigee_km":823.98015736104,"apogee_km":825.84862889242,"semimajor_km":7203.0513931267,"source":"CELESTRAK","updated_at":"2026-05-25T13:38:12.774814Z"}}